Regional Weather Roundup
Issued by NWS Glasgow, MT

Home | Current Version | Previous Version | Text Only | Print | Product List | Glossary On
Versions: 1 2 3 4 5 6 7 8 9 10 11 12 13 14 15 16 17 18 19 20 21 22 23 24 25 26 27 28 29 30 31 32 33 34 35 36 37 38 39 40 41 42 43 44 45 46 47 48
000
ASUS45 KGGW 220715
RWRGGW
HOURLY WEATHER ROUNDUP FOR NORTHEAST MONTANA
NATIONAL WEATHER SERVICE GLASGOW MONTANA
100 AM MDT WED OCT 22 2014

NOTE: "FAIR" INDICATES FEW OR NO CLOUDS BELOW 12,000 FEET WITH NO
SIGNIFICANT WEATHER AND/OR OBSTRUCTIONS TO VISISBILITY.

NORTHEAST MONTANA


CITY           SKY/WX    TMP DP  RH WIND       PRES   REMARKS
GLASGOW        MOCLDY    50  44  80 W14       29.75R
PLENTYWOOD       N/A     56  42  59 W10         N/A
WOLF POINT     CLOUDY    54  47  77 W16       29.74R
JORDAN           N/A     49  42  77 W12       29.82R
WINNETT          N/A     41  36  82 SW3         N/A
SIDNEY         CLOUDY    54  48  82 W24G30    29.69F
GLENDIVE       CLOUDY    54  46  76 W14       29.77R
MALTA            N/A     50  42  74 W8          N/A
SCOBEY           N/A     51  39  63 W5        29.69R

FORT PECK REPORTS


CITY           SKY/WX    TMP DP  RH WIND       PRES   REMARKS
FORT PECK        N/A     51  44  77 W20         N/A
THE PINES        N/A     53  42  66 W8          N/A

SOUTHEAST MONTANA


CITY           SKY/WX    TMP DP  RH WIND       PRES   REMARKS
BILLINGS       CLEAR     49  30  48 W20       29.94R
MILES CITY     LGT RAIN  52  43  71 W20       29.84R
BAKER          MOCLDY    51  46  83 W12       29.79R
LIVINGSTON     PTCLDY    44  32  62 W17       29.99S

CENTRAL MONTANA


CITY           SKY/WX    TMP DP  RH WIND       PRES   REMARKS
HAVRE          CLOUDY    48  44  86 SW18      29.81R
LEWISTOWN      CLOUDY    44  36  73 SW14      29.91R
GREAT FALLS    MOCLDY    43  35  73 SW15      29.90S
CUT BANK       CLOUDY    45  34  65 W21       29.85R
HELENA         PTCLDY    45  33  63 W6        30.00R
BUTTE          CLOUDY    38  31  76 SW9       30.06F
BOZEMAN        CLOUDY    40  36  86 CALM      30.05R

WESTERN MONTANA


CITY           SKY/WX    TMP DP  RH WIND       PRES   REMARKS
MISSOULA       CLOUDY    45  41  86 SE7       30.06R
KALISPELL      NOT AVBL

NORTH DAKOTA


CITY           SKY/WX    TMP DP  RH WIND       PRES   REMARKS
WILLISTON      CLOUDY    59  44  57 SW9       29.65R
DICKINSON      PTCLDY    55  43  63 W12       29.69R
MINOT          FAIR      64  44  48 SW9       29.60R
BISMARCK       PTCLDY    65  46  50 S18G28    29.66S

SOUTHERN SASKATCHEWAN


CITY           SKY/WX    TMP DP  RH WIND       PRES   REMARKS
REGINA         MOCLDY    50  43  76 W10       29.58S
ESTEVAN        PTCLDY    46  43  87 SW9       29.59R
SWIFT CURRENT  MOCLDY    46  43  87 W13       29.66S




USA.gov is the U.S. government's official web portal to all federal, state and local government web resources and services.